GFSNW_850_spd_000.txt.gz
Wind_Speed
4 3 8 11 17 23 20 14 5 13 14 9 13 8 2 2 7 1 4 5 4 4 4 2 5 8 8 5 5 4 4 3 2 8 5 3 3 5 3 1 1 2 1 6
6 4 9 13 20 25 16 12 7 16 17 4 2 3 6 3 7 7 4 2 1 2 5 3 7 8 5 5 8 4 5 2 2 7 5 3 3 3 1 6 2 3 2 3
7 5 8 15 20 21 13 7 3 7 10 11 11 7 7 5 3 4 2 5 4 5 5 5 6 9 4 5 7 3 4 1 2 2 5 7 7 8 8 8 3 5 6 14
6 6 7 13 18 18 9 5 5 11 5 7 6 10 9 10 6 5 6 5 5 7 2 6 5 11 8 4 2 1 3 3 6 8 9 9 10 11 11 12 10 8 10 13
7 6 6 9 14 15 11 4 3 5 9 14 8 4 6 10 8 8 7 5 7 7 6 4 6 6 4 3 3 2 6 2 3 3 4 9 12 14 14 15 14 9 12 13
6 6 6 7 10 13 7 5 2 4 2 5 6 5 8 9 10 4 8 8 8 12 13 15 13 14 9 7 3 4 3 2 1 2 9 9 2 4 5 4 6 9 5 8
7 6 6 6 7 9 4 6 4 4 1 3 6 10 9 11 9 6 11 11 9 11 17 16 15 15 11 8 7 7 5 2 2 2 5 3 3 12 12 9 7 7 7 8
8 6 6 7 6 6 5 7 5 4 2 8 10 10 9 14 9 13 16 11 14 15 4 3 3 2 4 4 5 7 5 2 3 1 3 9 11 4 6 5 10 10 7 8
9 7 6 7 7 6 5 6 7 3 8 4 9 10 15 8 8 6 6 8 8 4 3 2 3 2 2 5 6 8 5 5 1 2 2 3 2 7 6 9 8 8 10 11
11 9 7 7 7 7 7 6 7 5 4 4 5 10 11 12 10 5 9 6 4 2 2 3 2 3 2 5 6 4 2 1 3 4 4 6 9 5 4 3 2 5 5 10
13 11 9 8 7 7 8 6 5 5 4 4 5 7 13 8 11 5 13 5 2 3 3 3 2 2 4 2 3 6 7 7 4 3 3 6 2 2 1 5 10 2 3 5
14 12 11 10 9 8 6 1 4 6 5 8 11 11 11 9 5 10 16 4 8 8 3 2 1 2 2 2 3 8 4 6 4 9 5 10 3 7 10 10 7 3 8 7
14 13 12 11 10 10 10 6 7 5 5 5 6 4 10 11 11 11 6 7 5 10 7 7 3 3 4 4 5 2 3 9 3 2 7 12 10 3 6 6 2 5 6 8
15 14 13 12 11 10 10 7 9 6 4 4 4 7 8 11 11 11 10 9 10 12 7 5 3 3 12 5 6 3 6 6 6 9 15 15 3 5 7 1 7 9 7 9
14 13 13 13 12 11 11 10 10 10 2 4 2 6 11 11 9 7 9 10 11 10 5 3 4 4 1 4 1 4 10 10 7 8 8 3 3 4 4 7 6 6 5 6
12 11 11 12 12 10 7 2 7 12 9 2 2 3 2 9 9 9 8 11 10 10 6 5 5 8 7 3 3 10 17 16 11 14 0 3 2 7 6 3 1 1 2 7
12 10 10 11 12 13 7 4 6 12 11 3 1 3 3 9 7 8 8 10 8 7 4 6 4 4 9 4 5 11 13 14 14 1 3 3 6 4 5 3 1 3 5 9
12 11 8 8 11 13 10 8 3 9 8 6 3 2 2 10 4 3 4 4 4 3 4 3 4 5 6 4 10 12 14 15 6 5 2 5 2 6 3 2 2 5 9 12
16 12 9 8 7 7 12 10 4 11 7 4 5 6 4 9 5 4 4 4 1 2 2 5 3 3 6 7 10 11 12 8 9 5 5 6 5 3 1 2 5 8 11 12
19 14 7 6 6 10 11 7 4 4 5 5 6 7 3 8 7 3 5 2 1 2 2 2 2 5 16 16 9 5 10 9 7 9 11 7 6 2 3 5 7 9 11 19
22 11 8 8 20 14 9 6 6 6 3 7 9 15 5 7 4 3 5 3 2 3 3 3 3 3 9 20 14 8 8 8 8 10 9 7 3 2 5 8 10 16 18 19
11 7 9 10 4 3 4 5 4 4 5 6 9 6 7 7 5 4 6 3 2 5 8 2 3 3 8 15 11 9 10 12 11 9 7 3 1 4 10 15 20 20 19 22
11 3 2 1 0 3 3 5 3 3 4 6 6 4 6 5 4 5 2 5 5 2 3 3 1 8 9 12 14 12 12 13 11 6 2 3 8 14 18 21 20 19 21 24
3 2 3 1 2 1 1 2 3 2 2 13 16 7 4 4 3 4 4 1 2 3 3 3 4 8 10 12 12 12 9 9 6 3 7 13 19 23 22 20 19 20 25 26
3 2 2 2 1 2 3 2 4 6 9 8 9 6 4 2 3 1 3 4 3 3 1 2 9 11 12 12 10 12 9 6 6 10 16 22 23 23 23 20 20 23 25 24
1 2 2 2 2 4 4 7 8 7 9 7 5 2 2 2 2 2 2 2 1 2 3 5 7 10 7 6 6 5 6 10 13 18 23 21 21 21 22 24 25 24 20 20
2 1 4 4 5 3 3 4 5 3 4 2 1 2 4 1 0 0 1 0 2 4 6 7 6 6 4 1 4 10 13 16 20 23 22 22 21 22 24 25 21 16 18 21

GFSNW_850_spd_006.txt.gz
Wind_Speed
14 15 19 23 25 26 24 17 3 15 13 3 0 2 4 2 4 5 5 3 3 5 4 5 3 3 4 9 3 3 2 5 3 1 3 1 1 3 4 4 2 2 4 4
14 15 19 23 27 30 26 16 5 13 15 3 2 5 4 3 2 2 2 3 3 3 4 6 3 4 4 10 4 2 2 2 3 6 5 6 4 2 5 6 3 3 5 5
14 15 18 23 30 32 24 9 2 4 8 3 5 2 1 2 6 3 5 4 7 5 4 6 4 3 3 5 4 3 1 3 4 6 4 3 0 2 3 5 3 4 6 6
14 14 18 23 31 32 20 6 4 10 3 4 3 3 3 2 2 2 5 4 3 5 4 3 4 3 2 4 2 3 3 4 2 2 3 1 1 2 1 4 4 5 7 7
14 14 15 21 28 30 16 4 4 10 10 16 5 4 6 9 3 3 1 2 4 6 5 6 7 7 3 4 1 3 5 2 1 0 5 6 3 5 5 4 4 4 9 5
15 14 15 19 25 27 11 6 6 12 1 6 4 4 6 8 9 1 3 16 7 10 2 16 19 13 11 8 5 3 4 4 3 3 5 6 5 4 3 1 4 3 6 6
15 14 14 17 22 26 11 7 3 5 2 4 6 3 5 5 1 7 7 14 8 12 23 23 22 26 23 21 14 5 5 4 3 2 4 1 5 5 4 9 3 10 11 7
15 14 14 15 22 20 15 7 3 4 1 1 1 6 12 19 22 9 8 4 13 22 7 5 5 5 7 5 7 6 5 4 3 3 3 5 6 4 6 5 3 4 9 10
15 14 14 15 17 16 11 9 7 5 9 4 2 9 17 6 4 5 7 18 10 5 6 4 4 4 4 2 1 7 6 6 4 3 4 6 6 2 9 8 4 16 14 14
14 14 14 14 14 13 12 11 10 6 6 3 11 6 8 12 7 4 3 3 4 4 3 3 3 3 5 5 6 4 3 3 4 3 2 8 7 11 4 5 7 23 19 15
14 14 14 13 12 12 13 12 10 8 6 7 6 13 15 16 12 5 10 5 2 4 4 3 3 3 5 2 4 6 7 6 4 3 2 7 13 6 7 6 11 21 16 13
14 13 13 13 13 13 13 14 10 8 5 9 12 13 15 12 12 15 17 7 6 8 4 1 3 1 1 3 3 3 2 7 6 9 7 6 18 11 15 12 14 17 15 10
14 13 13 12 12 12 11 12 10 9 12 9 8 10 11 10 10 10 9 5 8 8 5 8 3 3 4 4 6 2 4 8 3 3 6 13 13 14 13 15 12 13 13 10
13 13 12 12 12 12 11 11 9 7 7 5 3 7 9 10 11 13 12 11 15 12 10 5 3 3 10 3 3 4 6 5 4 4 4 1 7 16 16 13 11 12 7 9
12 12 11 10 10 10 10 9 9 8 4 4 5 5 4 7 9 10 6 10 16 13 6 3 3 5 3 2 2 3 7 7 4 7 9 11 11 16 18 16 14 12 14 12
11 11 11 10 10 9 9 5 6 8 6 3 1 3 4 7 7 8 8 12 12 9 6 4 5 5 6 4 4 12 19 21 21 15 18 18 15 15 17 13 13 15 18 17
10 10 9 10 9 10 7 5 6 11 9 5 3 1 4 8 12 11 11 12 7 7 5 7 5 5 8 3 4 10 18 18 18 20 15 9 18 13 13 15 18 19 17 12
9 8 8 8 9 10 8 7 8 11 8 5 3 3 1 7 5 4 5 6 8 4 5 5 4 3 3 3 14 20 23 24 25 20 20 14 15 13 19 22 18 16 12 7
10 9 7 7 8 7 8 7 6 11 4 5 4 5 4 8 6 4 3 2 1 2 4 5 5 2 5 8 13 15 18 17 17 19 14 17 20 21 21 17 12 12 6 1
11 10 4 4 8 8 8 4 3 5 5 4 4 6 2 6 5 2 3 1 1 1 3 3 2 4 21 23 19 16 12 12 14 21 19 21 19 18 17 14 9 2 3 9
11 4 4 8 13 5 3 2 2 1 2 4 4 10 4 6 3 3 3 2 0 1 4 4 3 3 6 9 11 15 12 10 17 15 20 20 20 18 14 4 3 4 10 15
10 7 11 10 2 2 3 2 0 2 2 1 2 4 4 4 4 4 6 3 2 6 6 2 3 3 13 5 9 13 14 17 19 17 19 18 14 6 5 1 7 12 14 14
13 4 4 3 2 2 4 6 1 1 3 1 3 1 4 5 6 3 2 4 5 7 3 3 2 7 11 18 23 23 17 13 17 18 9 8 6 1 5 9 11 13 14 12
4 3 3 2 2 1 1 1 1 1 3 2 2 3 2 2 2 2 3 1 2 2 2 3 2 12 12 15 11 16 16 7 3 10 6 1 5 11 12 12 14 14 14 14
5 3 3 2 2 3 0 2 1 1 1 3 4 3 2 2 2 1 2 1 1 2 0 1 4 9 11 7 10 11 9 6 4 3 6 9 14 14 14 14 14 15 15 15
4 4 3 4 3 2 2 3 2 3 4 4 2 2 1 1 1 1 2 3 0 1 0 3 7 5 3 5 5 3 2 3 5 8 11 13 15 16 15 15 12 12 13 15
3 3 6 5 5 4 3 3 3 3 1 1 1 2 2 1 1 0 2 2 2 4 2 3 3 2 2 3 2 3 6 8 9 10 13 15 13 14 15 15 13 13 14 16

GFSNW_850_spd_009.txt.gz
Wind_Speed
26 24 26 29 29 29 27 20 2 16 14 4 1 3 4 5 2 6 4 4 3 5 4 4 3 4 0 4 1 2 1 5 3 1 5 3 1 2 4 4 3 1 3 5
25 23 27 30 31 32 29 15 5 15 17 4 2 4 4 1 1 3 2 3 2 2 5 6 2 3 0 3 3 3 2 2 3 6 6 5 2 3 5 6 3 4 5 5
23 23 27 30 33 34 28 13 2 4 8 4 7 3 4 1 4 3 3 3 5 5 5 6 4 3 1 3 5 5 3 3 5 6 4 3 3 2 3 4 3 3 5 4
22 23 27 31 36 37 23 9 5 9 3 3 4 5 2 3 2 1 3 4 3 5 4 3 4 2 2 4 3 4 4 3 1 3 4 2 1 3 5 6 4 5 6 7
21 23 27 32 38 37 20 8 5 6 7 20 6 3 5 7 2 3 1 6 2 2 6 6 8 6 2 3 6 4 4 3 1 1 6 6 3 5 6 5 4 6 3 4
20 21 25 31 37 36 18 8 5 8 2 5 5 5 6 8 6 6 1 11 5 5 2 8 12 8 10 7 5 3 4 5 3 3 4 5 6 7 6 4 3 6 6 7
20 20 23 29 35 37 21 9 6 6 2 3 6 6 3 6 5 7 4 8 6 14 31 28 24 26 23 21 14 5 5 4 3 2 3 2 6 4 6 4 1 3 3 9
20 19 23 27 33 32 20 10 7 7 2 3 4 8 7 14 15 6 4 2 11 24 6 5 5 5 6 5 6 6 4 5 3 4 3 5 6 5 6 6 7 5 8 8
19 19 23 26 27 27 17 14 7 4 15 4 12 7 10 5 4 5 5 18 28 4 6 4 4 4 4 2 1 5 5 6 4 2 4 6 6 3 6 5 5 18 17 17
19 19 21 24 29 28 21 12 8 6 7 6 14 5 9 11 7 4 4 5 3 3 3 3 3 3 3 4 5 3 2 3 4 3 3 8 7 5 4 5 7 23 27 27
18 19 19 21 28 21 18 13 11 8 6 8 10 11 15 12 10 5 10 5 1 4 4 3 4 3 5 2 4 5 7 6 4 3 1 8 11 5 7 6 7 20 28 28
17 18 18 19 21 20 17 17 12 9 7 7 12 11 13 14 13 15 17 6 6 7 4 1 3 2 2 2 3 2 3 7 5 9 6 4 18 8 21 9 9 18 24 25
16 16 16 16 17 17 15 17 15 11 18 11 9 10 10 11 10 9 9 6 8 7 6 8 3 3 4 4 6 1 4 7 3 2 5 15 17 22 21 15 16 14 19 20
15 15 15 15 15 14 13 15 14 9 10 5 3 9 9 7 10 9 6 5 13 12 9 5 3 3 9 3 3 4 4 8 4 5 10 12 15 19 22 23 19 15 17 17
13 13 13 13 13 13 12 12 12 10 4 5 7 9 6 5 4 4 4 6 13 10 5 3 3 5 4 2 1 3 9 7 4 7 17 12 14 14 17 22 24 19 20 18
12 12 12 12 12 13 13 5 7 8 9 4 2 4 6 6 6 7 9 11 10 8 6 4 5 6 7 4 4 13 18 22 24 21 27 20 21 18 17 24 20 19 17 18
11 11 10 10 11 12 5 5 8 10 8 4 4 1 4 9 9 8 10 11 7 7 5 7 5 7 9 4 4 23 24 24 23 23 21 19 22 14 17 20 18 18 19 19
11 10 10 10 10 10 8 7 8 11 6 4 4 2 1 7 4 5 5 5 6 3 3 3 3 5 3 3 19 26 25 24 26 28 26 23 17 13 20 19 19 23 23 17
12 12 12 11 7 5 8 7 6 9 4 6 3 5 4 6 3 3 3 3 2 2 4 3 5 2 5 8 12 15 15 14 18 17 16 15 13 16 19 24 20 15 14 5
13 14 5 4 7 10 10 4 2 3 2 2 3 4 2 3 3 2 2 2 1 1 3 4 2 3 12 17 15 19 21 15 14 10 11 16 20 24 25 17 11 9 6 7
10 4 4 13 14 5 3 3 4 3 2 2 2 1 2 3 3 2 3 2 0 2 4 3 2 3 5 18 15 11 6 8 8 9 11 17 20 17 15 13 3 6 7 8
7 11 15 9 2 3 5 2 2 2 2 1 2 2 3 2 3 4 3 2 1 5 3 1 3 2 8 8 11 11 10 11 17 17 22 21 21 15 7 4 5 7 8 10
13 4 3 2 4 3 4 5 1 2 2 1 2 1 1 3 3 4 2 4 4 4 2 3 1 6 12 18 21 22 16 13 17 21 20 14 10 5 0 3 6 8 9 10
4 3 3 1 1 2 2 1 2 3 2 3 3 4 2 1 2 2 2 0 1 2 2 2 2 4 7 10 10 14 13 12 16 15 10 6 5 5 6 8 8 9 9 11
5 3 3 2 3 3 2 2 3 3 3 3 3 4 1 2 2 1 1 1 1 1 1 1 5 7 8 9 7 9 11 11 8 5 4 6 7 8 8 10 11 12 12 12
4 4 4 5 4 2 3 5 4 3 3 4 3 2 2 1 1 2 3 3 1 1 1 6 7 6 5 8 7 5 5 4 3 6 9 11 12 13 12 12 11 10 12 13
3 3 7 5 7 5 4 5 5 5 2 1 2 3 3 1 1 1 1 1 2 3 5 4 1 3 6 6 5 6 7 8 8 8 9 10 11 11 12 13 14 14 16 19

GFSNW_850_spd_015.txt.gz
Wind_Speed
41 41 38 35 31 30 30 18 3 22 23 4 1 4 5 3 4 3 4 4 4 4 3 3 3 6 1 1 1 4 1 4 2 1 0 2 1 3 4 3 4 1 0 5
43 42 39 36 33 34 36 14 6 19 23 4 1 2 2 2 2 1 3 3 3 2 4 4 2 3 2 3 3 5 5 1 3 3 2 1 2 2 4 5 2 5 3 3
44 43 40 37 34 36 33 17 3 6 8 6 8 5 3 1 3 2 4 5 4 4 3 4 5 3 2 2 3 4 3 2 4 7 3 1 4 4 5 3 3 4 6 4
44 42 40 38 37 39 31 10 4 8 3 1 5 4 5 4 2 1 2 3 2 5 4 2 3 2 2 3 3 3 2 4 2 1 1 2 2 4 8 7 4 6 3 8
43 41 40 38 39 42 25 9 6 6 4 18 7 2 6 6 2 1 1 6 3 2 5 6 8 6 4 4 2 2 2 4 1 4 1 3 3 5 7 8 4 10 6 14
41 39 39 39 42 45 17 9 12 14 2 4 6 6 6 7 7 3 4 7 5 4 1 4 9 8 11 6 5 3 2 5 3 3 2 2 5 9 11 6 6 7 9 8
39 38 37 38 43 46 20 16 16 7 2 2 6 8 4 6 6 6 4 6 5 7 27 28 23 25 22 18 12 4 5 4 2 2 1 2 4 2 2 10 6 13 4 4
36 35 35 38 43 45 19 17 17 6 3 5 4 6 5 14 9 4 4 3 8 28 6 4 4 4 5 5 7 6 4 4 3 2 3 5 5 3 5 6 6 12 13 6
33 32 33 38 44 44 18 20 15 7 13 7 13 7 8 5 4 3 4 10 29 4 4 3 4 3 4 1 1 2 4 5 3 3 2 5 5 2 4 3 4 3 12 8
29 29 32 38 44 44 19 15 12 6 5 6 15 6 8 9 6 4 7 10 4 1 2 3 3 3 1 3 4 2 2 3 3 2 4 7 6 1 4 3 4 3 13 15
27 29 32 38 42 45 22 14 8 7 4 14 9 10 14 11 10 5 11 6 2 3 3 3 3 3 4 2 3 5 5 5 3 3 1 6 6 4 5 4 4 6 14 16
24 27 31 36 40 44 22 17 8 8 6 9 11 11 12 10 13 16 23 8 7 8 4 1 3 2 1 2 3 1 3 5 3 8 5 4 12 9 11 9 8 8 13 15
21 24 29 35 42 36 19 26 15 12 14 12 9 9 10 11 11 12 10 6 9 8 7 9 2 3 3 4 5 1 3 5 2 1 3 10 16 18 23 26 25 26 23 20
21 23 30 36 40 25 32 12 15 7 8 6 4 9 8 10 12 9 8 11 15 14 9 5 3 3 7 3 2 3 3 7 4 4 12 15 13 16 13 13 17 21 21 19
21 26 33 39 37 29 25 20 18 13 4 7 8 12 9 9 9 9 10 13 16 10 5 3 2 6 5 2 1 3 10 6 4 5 18 9 17 18 17 18 17 15 16 18
22 28 31 30 29 30 20 8 10 12 12 8 3 5 6 10 10 13 16 12 9 5 5 3 5 4 4 4 3 12 12 17 19 13 13 19 24 25 21 17 16 16 13 10
21 24 28 29 27 25 17 8 13 14 12 5 4 3 4 8 9 7 6 6 4 3 4 3 4 3 6 3 3 8 14 13 17 15 15 15 10 8 14 14 11 8 3 7
19 19 19 18 16 19 16 16 16 13 7 5 4 1 3 3 2 3 2 3 4 4 4 3 3 5 3 3 5 18 19 17 2 15 12 9 9 7 3 1 5 11 20 24
18 18 18 17 15 7 12 15 12 9 6 6 3 4 3 1 3 3 3 3 3 1 2 2 4 1 2 4 12 16 17 12 16 12 6 3 7 11 11 11 20 25 22 19
19 17 4 5 9 20 14 5 3 4 6 5 4 3 2 2 2 3 2 3 1 2 1 4 2 2 6 11 8 9 12 12 4 5 11 13 19 22 24 23 22 21 18 15
8 4 6 15 14 4 4 5 6 6 4 5 3 3 3 3 2 2 2 2 1 2 2 3 1 2 3 8 12 13 13 14 16 14 17 23 25 23 22 19 16 11 8 7
8 13 16 7 4 5 7 3 2 3 2 2 2 3 3 3 3 4 2 2 1 2 2 1 2 2 6 14 18 21 23 23 26 25 25 23 21 18 14 10 7 5 5 8
10 5 5 5 7 6 4 4 1 2 3 4 4 2 3 3 2 5 2 3 2 5 1 2 2 10 9 15 16 18 18 19 19 18 16 13 10 6 2 4 6 7 8 9
5 5 5 3 2 3 1 2 2 2 3 8 7 5 2 2 3 1 2 1 1 3 4 4 3 10 12 15 14 12 15 12 9 8 7 7 8 7 7 7 7 8 9 10
6 6 4 4 4 5 6 7 5 4 6 6 6 5 2 2 3 1 3 1 2 2 3 2 11 13 15 14 13 11 8 5 3 4 4 5 6 6 6 7 8 9 10 11
6 7 4 5 5 4 5 8 8 5 6 6 4 2 2 1 2 2 3 3 3 2 3 14 14 13 14 13 10 7 4 0 1 1 2 3 3 4 6 8 9 11 14 17
4 5 10 9 10 7 6 6 5 5 3 1 2 2 1 2 2 0 2 2 1 10 19 16 16 16 14 10 7 3 1 3 2 1 2 3 4 6 9 13 17 20 22 23